Location: Cz?stochówka
(50.8142°N, 19.0915°E)
Time: 20:36:39
(UTC+00:00)

Cosmos 1758 - Pass Details

Date: 13 January 2026
Orbit: 479 x 500 km, 82.5° (Epoch: 13 February)

Event Time Altitude Azimuth Distance (km) Brightness Sun altitude
Rises 05:49:23 0° 216° (SW) 2,584 6.6 -8.0°
Reaches altitude 10° 05:51:43 10° 229° (SW) 1,702 5.6 -7.6°
Maximum altitude 05:54:57 28° 289° (WNW) 973 4.0 -7.2°
Drops below altitude 10° 05:58:12 10° 350° (N) 1,704 5.5 -6.7°
Sets 06:00:33 0° 2° (N) 2,588 6.5 -6.4°
